Location: Sweet Grass
(48.9965°N, 111.9649°W)
Time: 07:08:28
(UTC+00:00)

EO-79 - Pass Details

Date: 30 March 2023
Orbit: 578 x 593 km, 98.0° (Epoch: 03 June)

Event Time Altitude Azimuth Distance (km) Brightness Sun altitude
Rises 08:48:44 0° 25° (NNE) 2,834 ? -34.7°
Reaches altitude 10° 08:51:18 10° 40° (NE) 1,924 ? -34.6°
Enters shadow 08:52:32 16° 54° (NE) 1,564 ? -34.5°
